Theta_e
303 302 302 302 302 302 302 302 303 303 303 303 303 302 302 302 302 302 302 302 302 302 302 303 303 303 304 304 304 304 304 305 305 305 305 305 305 305 305 305 305 305 305 305 306 306 306 307 306 306 307 307 308 308 309 310 310 311 311 311 312 313 314 314 313 313 313 312 312
302 303 303 302 302 302 302 302 302 303 303 303 303 303 302 302 302 302 302 302 303 303 303 303 303 304 304 304 304 304 304 304 304 304 305 305 305 305 305 305 305 305 306 306 306 306 306 306 306 306 306 307 307 307 308 310 311 310 310 310 311 312 313 313 313 314 313 313 312
302 302 302 302 302 302 301 301 301 302 302 302 302 303 302 302 302 302 302 302 303 303 303 303 304 304 304 304 304 304 304 304 304 304 304 304 304 304 304 305 305 305 305 305 306 305 306 306 305 305 306 306 306 306 307 308 309 309 309 309 310 311 312 313 313 313 313 313 312
302 302 302 302 302 302 301 301 301 301 302 302 302 302 302 302 302 302 302 303 303 303 303 303 304 304 304 304 304 304 304 304 304 304 304 304 304 304 304 304 304 304 305 305 305 306 305 305 305 305 305 305 305 306 306 307 308 309 309 309 310 311 312 313 313 313 313 313 312
302 302 302 302 302 302 302 302 302 301 302 302 302 302 302 302 302 302 302 303 302 303 303 304 304 304 305 304 304 304 304 304 304 304 303 303 304 304 304 304 304 304 304 305 305 305 305 305 305 304 304 305 305 306 306 307 307 308 309 309 310 311 312 313 313 313 313 313 312
301 301 302 302 302 302 302 302 302 302 302 302 301 301 301 301 301 301 302 301 302 303 303 304 304 304 304 304 304 303 304 304 304 304 304 304 304 304 304 304 304 304 304 304 304 305 305 305 304 304 304 304 305 306 307 307 307 307 308 308 309 310 312 312 313 312 312 312 312
301 301 301 302 302 302 302 302 302 302 302 301 301 301 301 301 301 301 301 302 302 302 303 303 304 303 303 303 303 303 303 303 303 303 303 303 303 303 304 304 304 304 304 304 304 304 304 305 304 303 303 304 304 305 306 307 307 307 307 308 308 310 311 313 313 313 313 313 312
301 301 301 302 302 302 302 302 302 302 301 301 301 301 301 301 301 301 302 302 302 302 302 303 303 303 303 303 303 303 303 303 303 303 303 303 303 303 304 304 304 304 304 304 304 304 304 304 303 303 303 303 304 304 306 307 307 307 307 307 308 309 311 312 313 314 313 313 313
301 301 302 302 302 302 302 302 302 302 301 301 301 301 301 301 302 302 301 301 302 302 303 303 303 303 303 303 303 303 303 303 303 303 303 303 303 303 303 304 304 303 303 303 303 303 303 303 303 303 303 303 303 304 305 306 307 307 307 307 308 309 310 311 312 313 313 313 312
301 301 301 301 302 302 302 302 302 302 301 301 301 302 302 302 302 302 301 301 302 303 303 302 303 303 303 303 303 303 303 303 303 303 303 303 304 303 303 303 303 303 303 303 303 303 303 302 302 303 303 303 304 304 305 306 306 306 307 307 307 308 309 310 311 312 312 313 313
300 301 301 301 301 302 302 302 301 301 301 301 301 302 302 302 302 302 302 302 302 302 302 303 303 303 302 303 303 303 303 303 303 303 303 303 304 303 303 303 303 303 303 303 303 302 302 302 302 303 303 303 304 304 305 305 306 306 307 307 307 308 309 309 310 311 312 312 312
300 300 300 301 301 301 301 301 301 301 301 301 301 301 301 302 302 302 302 302 302 302 302 303 303 303 302 302 303 303 303 303 303 303 303 303 303 303 304 304 304 303 303 303 303 303 302 302 303 303 303 303 304 304 304 305 305 305 306 307 308 308 309 309 310 311 311 312 312
299 300 300 300 301 301 301 301 301 301 301 301 301 301 301 302 302 302 302 302 302 302 302 303 303 302 302 302 303 303 303 303 303 303 303 303 303 303 303 303 303 303 303 303 303 303 303 302 303 303 303 303 303 304 304 304 305 305 305 306 306 307 308 309 310 311 311 311 311
299 299 299 300 300 300 300 300 300 300 300 301 301 301 301 301 302 302 302 302 302 301 302 302 302 303 303 303 303 303 303 303 303 303 303 303 303 303 303 303 303 303 303 303 303 303 303 303 303 302 303 303 303 304 304 304 304 305 304 305 306 306 307 308 309 310 311 311 312
299 299 299 299 299 299 299 299 299 300 300 300 300 300 301 301 301 301 302 301 301 301 301 302 302 302 302 303 303 303 303 303 302 302 302 303 303 303 303 303 303 303 303 303 302 303 303 303 303 303 303 303 303 303 304 304 304 305 305 305 305 306 306 307 308 310 310 310 311
298 298 299 299 299 298 299 299 299 299 299 299 300 300 300 300 300 301 301 301 301 301 301 301 301 302 302 303 303 303 303 303 302 302 302 301 302 302 302 302 302 302 303 302 302 302 303 303 303 303 303 302 303 303 304 304 305 305 305 306 306 306 307 308 309 309 310 310 310
298 298 298 298 298 298 298 298 298 298 299 299 299 299 299 299 300 300 300 301 300 300 300 301 301 301 301 302 302 302 302 302 301 301 301 301 301 301 302 302 302 302 302 302 302 303 303 303 303 303 303 303 303 303 304 305 305 305 306 306 307 307 307 308 309 309 310 310 310
297 297 298 298 297 298 298 298 298 298 298 299 299 299 299 299 299 299 300 300 300 300 300 300 301 301 301 301 301 301 301 301 301 300 300 301 301 301 301 302 302 302 302 302 303 303 304 304 303 303 303 303 303 303 304 305 305 306 306 306 307 307 307 308 309 309 310 310 310
297 297 297 297 297 297 297 298 298 298 298 298 298 298 299 299 299 299 299 299 300 300 300 300 300 300 301 301 301 301 301 300 300 300 300 300 301 301 302 302 302 302 302 302 303 303 303 303 303 303 303 303 303 303 303 304 305 306 306 307 307 307 308 308 309 309 310 310 310
297 297 297 297 297 297 297 298 298 298 298 298 298 298 298 298 298 298 298 298 299 299 299 299 299 300 300 300 300 300 300 300 300 300 300 300 301 301 302 302 302 303 303 303 303 303 303 303 303 303 303 303 303 303 303 304 305 306 306 307 307 307 307 308 309 310 310 311 311
297 297 297 297 297 297 297 298 298 298 298 298 298 298 298 298 298 298 298 298 299 299 299 299 299 299 299 300 300 300 300 300 300 300 300 300 301 301 301 301 301 302 302 303 303 303 303 303 303 303 303 303 303 303 303 304 304 305 305 306 306 306 306 307 308 309 310 311 311
297 297 297 298 298 298 298 298 298 298 298 298 298 298 298 298 298 298 298 298 299 299 298 298 298 299 299 299 299 300 300 300 300 300 300 300 300 301 301 301 301 301 302 303 303 303 303 303 303 303 303 303 302 303 304 304 305 305 304 305 304 304 304 304 306 307 309 310 310
297 297 298 298 298 298 298 298 298 298 298 298 298 298 298 297 298 298 298 298 298 298 298 298 298 298 299 299 299 300 300 300 300 300 300 300 300 300 300 301 301 301 302 302 303 303 303 303 303 303 302 302 302 302 304 305 305 304 304 303 303 303 304 304 304 305 306 308 309
297 298 298 298 298 298 298 298 298 298 298 298 298 298 298 297 298 298 298 298 298 298 298 298 298 298 299 299 299 300 300 300 300 300 300 300 300 300 300 301 301 301 301 302 302 303 302 302 302 302 301 301 302 303 304 305 305 304 303 303 302 303 303 303 303 304 304 306 308
298 298 298 298 298 298 298 298 298 297 297 297 298 298 298 298 298 297 297 298 298 298 298 298 298 298 299 299 299 299 299 300 300 300 300 300 300 301 301 301 301 301 301 301 302 303 302 302 301 301 301 301 302 303 304 305 304 303 302 302 302 302 302 303 303 304 304 305 306
298 298 298 298 298 298 297 297 297 297 297 297 297 297 297 297 297 297 297 297 297 298 298 298 298 298 298 298 298 298 299 299 299 300 300 301 301 301 301 300 301 301 301 301 302 302 302 302 302 301 302 303 303 303 304 303 303 303 302 302 302 302 302 302 303 303 303 304 305
298 297 297 298 298 297 297 297 297 297 297 297 297 297 297 297 297 297 297 297 297 297 297 297 298 298 298 298 298 298 298 298 299 299 300 300 300 300 300 300 300 300 300 301 302 302 302 302 302 302 303 303 304 304 303 302 302 302 302 302 302 302 302 302 302 302 303 303 304
297 297 297 297 297 297 297 297 297 297 297 297 297 297 297 297 297 297 297 297 297 297 297 297 298 298 298 298 298 298 298 298 298 299 300 300 300 299 299 299 299 300 301 302 302 302 303 303 303 303 304 303 304 304 303 302 302 302 301 301 301 301 301 301 301 302 302 303 303
297 297 297 297 297 297 297 297 296 296 296 296 297 297 297 297 296 297 297 297 297 297 297 297 297 298 298 298 297 298 298 298 298 298 298 299 299 299 299 299 299 300 301 302 303 303 303 304 305 305 305 305 303 303 302 302 302 302 301 301 300 301 301 301 301 302 302 303 304
297 297 297 297 297 297 297 297 297 297 297 297 297 296 296 296 296 296 296 296 297 297 297 297 297 297 297 297 297 297 297 298 297 298 298 298 298 299 299 299 299 300 301 302 303 303 304 305 305 306 306 305 304 303 303 302 301 300 300 300 299 300 300 300 301 301 302 303 303
297 297 297 296 296 296 297 297 297 297 297 297 296 296 296 296 296 296 296 296 297 297 298 298 298 297 297 298 297 297 298 298 298 298 298 297 298 299 300 300 300 300 301 302 302 303 304 304 305 305 305 305 304 303 302 302 301 300 299 300 300 300 300 300 300 301 301 302 303
297 296 296 296 296 297 297 297 297 297 297 297 296 296 296 295 296 296 296 297 297 297 298 298 297 297 297 298 297 297 297 298 298 298 298 298 298 299 300 300 300 301 301 302 302 302 303 303 303 303 304 304 303 302 302 301 301 300 299 300 300 300 300 301 301 301 302 302 302
296 296 296 296 296 296 296 297 297 297 297 297 296 296 295 295 296 296 296 297 297 297 297 297 297 297 297 297 297 297 297 298 298 299 299 299 299 299 300 301 301 301 301 302 302 302 302 302 302 302 303 303 302 301 301 301 300 300 299 300 300 300 301 301 301 302 303 303 303
296 296 296 296 296 296 296 296 296 296 296 296 296 296 296 296 296 296 296 297 297 297 297 298 297 297 297 297 297 297 297 298 298 299 299 299 299 299 299 300 300 301 302 302 302 301 301 302 302 302 302 302 301 301 300 300 299 299 300 300 300 300 300 301 302 303 304 306 305
296 295 295 295 296 296 296 296 296 296 296 296 296 296 296 296 296 296 297 297 298 298 298 298 298 298 298 298 297 297 297 297 298 298 299 299 299 298 298 299 300 301 302 302 301 301 301 301 302 301 302 301 301 300 300 299 299 299 299 299 299 300 300 301 301 303 304 305 306
296 295 295 295 296 296 296 296 296 296 295 295 295 296 296 296 296 296 297 298 298 297 297 297 298 298 298 297 297 297 297 297 298 298 298 299 298 298 298 298 298 300 301 301 301 301 301 301 301 301 301 301 300 300 299 299 298 299 299 298 298 299 300 301 302 302 303 304 305
296 296 295 295 295 296 296 296 295 295 295 295 296 296 296 296 296 297 297 298 297 297 297 297 297 297 297 297 297 297 297 298 297 298 298 298 298 297 297 297 297 299 300 301 301 301 301 301 302 302 301 300 299 298 298 298 297 298 298 298 298 299 301 302 302 302 303 304 305
296 296 296 295 295 295 296 296 295 295 295 295 296 296 296 296 296 297 297 297 297 296 296 296 296 296 297 297 297 298 298 298 298 298 298 298 298 298 297 296 297 298 299 300 300 301 301 302 302 302 301 299 298 298 297 297 297 298 298 298 299 299 301 301 302 302 303 304 306
296 296 296 296 296 295 295 295 295 295 295 295 296 296 296 296 296 297 297 297 297 296 296 296 296 297 297 298 298 298 298 298 298 298 298 298 298 298 298 297 297 298 299 299 300 300 301 302 302 302 301 299 298 298 298 297 297 297 298 299 299 299 300 301 302 302 304 305 306
296 296 296 296 296 295 295 295 295 295 296 296 296 296 296 296 296 297 297 297 297 296 296 296 297 297 298 298 298 298 298 298 298 298 298 298 299 299 299 298 297 298 298 299 300 300 301 301 302 302 301 299 299 299 298 298 298 298 298 298 298 299 299 301 302 303 304 305 306
296 296 296 296 296 296 295 295 295 296 296 296 296 296 296 297 297 297 297 297 297 297 296 296 297 297 298 298 298 298 297 298 297 298 298 298 298 299 299 298 298 298 298 299 300 300 300 301 301 301 301 299 299 298 298 298 298 298 297 297 298 298 299 300 301 302 303 303 304
Wind_Speed
14 13 12 11 11 10 10 10 10 10 10 10 10 10 10 10 10 10 9 9 9 9 9 8 9 9 10 12 13 14 14 14 14 15 15 15 14 14 14 13 13 13 13 13 13 12 11 11 11 9 8 8 9 10 10 10 11 12 13 12 11 11 12 13 13 13 13 12 10
15 15 14 13 12 11 10 10 10 10 10 10 10 10 10 10 10 10 10 10 9 9 9 9 10 11 12 14 14 14 14 14 15 15 15 15 15 14 14 13 13 13 13 13 13 11 10 11 10 9 8 8 9 10 10 10 11 12 13 15 12 11 11 12 12 13 13 12 10
15 15 14 13 13 12 11 10 11 12 12 12 11 11 11 10 10 10 10 10 11 11 10 10 10 12 14 15 14 13 13 14 15 15 15 14 15 15 14 13 13 13 13 12 12 11 11 11 10 9 9 9 10 10 11 11 11 12 13 14 12 10 9 10 10 11 10 8 8
15 15 14 14 15 15 14 11 13 14 14 12 12 12 11 11 10 10 10 11 12 12 11 10 11 11 12 13 14 14 14 15 15 16 16 15 15 15 15 15 14 14 13 13 13 12 12 12 10 9 9 11 12 12 11 10 11 12 11 11 10 10 9 9 9 9 8 8 8
16 15 14 14 16 16 15 14 15 15 14 12 12 11 11 11 10 11 11 11 11 11 12 13 12 12 12 13 15 16 16 16 16 15 15 15 15 15 15 15 15 14 13 13 13 13 13 13 10 9 10 11 10 10 11 12 12 12 11 9 9 9 9 9 8 8 8 8 7
15 16 15 15 16 16 15 14 16 16 15 13 13 14 13 11 11 12 12 12 13 14 15 16 14 14 14 15 16 16 16 16 15 15 15 15 15 15 15 16 15 14 13 13 14 14 14 13 10 9 9 10 10 11 13 14 13 12 11 10 10 9 9 9 9 8 8 9 9
16 17 17 17 18 17 16 16 16 16 15 14 16 17 17 15 15 16 16 16 15 15 15 14 14 14 15 15 15 16 15 15 15 16 16 15 15 15 15 15 14 14 14 14 14 14 13 12 10 9 9 10 9 11 13 13 13 12 12 12 10 10 9 10 9 9 9 11 12
17 18 18 18 18 18 18 18 17 16 15 14 16 18 19 19 19 19 19 18 16 15 14 13 14 16 16 16 16 16 16 16 16 16 16 16 16 16 16 15 15 15 14 14 14 14 13 12 10 10 10 10 9 10 12 14 14 14 13 13 11 10 10 9 9 9 10 12 13
17 18 18 19 18 18 19 19 18 18 17 17 18 20 20 20 21 20 19 17 16 15 14 14 15 17 18 18 17 16 16 15 16 16 16 16 16 16 16 15 15 15 15 14 15 15 15 12 10 10 10 10 10 11 12 14 15 15 15 14 13 12 12 11 11 11 12 12 13
18 18 18 18 19 19 19 19 19 19 20 20 21 21 21 21 20 19 17 15 15 15 15 15 16 17 18 18 18 17 16 15 16 16 17 16 17 17 16 15 15 15 15 14 14 15 15 13 12 12 12 12 13 14 15 15 16 16 15 12 12 14 15 14 14 14 13 13 14
20 20 19 18 19 19 19 19 19 19 19 19 20 20 20 20 19 18 17 16 16 17 18 17 18 18 18 17 17 16 16 15 15 16 17 17 17 17 17 16 16 16 15 15 14 14 13 12 13 14 15 14 15 15 16 16 16 16 16 14 14 15 16 16 15 14 14 14 15
20 20 20 19 20 20 19 19 18 17 18 19 20 20 19 19 19 19 18 18 19 19 19 18 18 18 17 16 16 16 16 16 17 17 17 17 18 18 17 17 17 16 16 16 14 13 12 13 14 15 17 17 15 14 14 16 16 17 16 16 16 16 16 16 16 14 13 13 14
21 20 20 20 20 20 20 19 17 17 18 19 19 18 18 18 18 19 19 19 19 18 17 17 17 17 17 16 15 15 15 16 17 17 17 17 17 18 18 17 17 16 16 15 14 13 13 14 15 17 17 17 15 15 15 16 16 16 16 16 16 16 16 16 16 15 15 15 14
21 21 21 20 20 20 19 19 17 16 17 19 18 18 17 17 18 18 18 18 18 18 17 17 16 16 16 16 16 16 17 17 17 18 18 18 18 18 18 17 17 16 16 14 14 15 15 15 16 17 18 18 17 17 17 17 16 16 16 16 16 16 16 16 16 16 16 16 15
21 21 21 21 20 19 18 18 16 16 17 18 18 17 17 16 16 16 17 17 18 17 16 16 15 16 17 18 18 18 18 18 18 19 19 19 19 18 18 17 17 17 16 15 15 15 16 17 17 17 18 18 18 18 17 17 17 16 16 16 16 16 16 16 16 16 16 16 15
21 21 21 21 20 19 18 18 15 15 16 17 17 17 17 16 16 16 17 17 17 16 15 16 16 16 17 18 19 19 19 19 19 19 19 18 18 18 18 18 18 18 17 17 16 15 15 16 16 17 18 18 18 18 17 17 17 17 16 16 16 16 16 16 16 16 16 16 16
21 21 21 21 21 20 20 18 16 16 17 18 19 18 18 17 15 16 17 17 16 16 16 18 17 16 17 18 18 18 18 18 18 18 17 17 17 18 18 18 18 18 18 17 16 16 15 16 16 17 17 18 18 17 17 17 17 16 16 16 16 16 16 16 16 16 17 17 17
21 21 21 21 21 21 21 20 19 19 19 20 20 19 18 17 17 17 17 18 18 18 19 20 18 18 18 19 18 17 17 17 17 17 17 17 17 18 18 18 18 18 18 17 16 16 15 16 16 17 17 17 17 17 17 17 16 16 16 16 15 15 15 16 16 16 16 17 17
21 21 21 21 21 21 21 21 21 20 20 20 20 19 19 19 20 19 19 19 19 20 20 20 19 18 18 19 19 18 17 17 18 19 19 19 18 18 18 18 18 18 18 18 16 16 15 16 16 17 17 17 16 16 16 16 16 16 16 16 15 15 16 16 17 16 16 17 17
21 21 21 21 21 21 21 21 21 21 20 20 20 20 21 21 21 21 21 20 20 20 20 20 19 19 19 19 20 19 18 17 18 19 20 19 19 18 18 18 18 18 18 18 17 16 16 16 16 17 17 17 16 16 17 17 16 16 15 14 14 14 15 16 16 17 17 17 17
21 21 21 21 21 21 21 21 21 21 21 21 21 21 22 21 21 21 21 21 21 21 20 20 20 20 19 19 20 20 19 17 18 19 19 19 19 19 19 19 19 18 17 16 16 16 16 16 16 16 16 16 16 16 17 16 16 15 14 12 11 11 12 14 16 17 17 17 17
21 21 21 21 21 21 21 21 21 21 21 21 22 22 22 22 21 21 21 21 20 20 20 20 20 20 20 20 19 19 18 17 18 18 19 18 18 19 19 18 18 17 16 16 15 15 16 16 16 16 16 16 16 17 17 17 15 14 13 12 12 12 12 13 14 15 16 17 16
21 21 21 20 21 21 22 22 22 22 22 22 22 22 22 22 22 22 21 21 20 20 20 20 19 19 20 20 19 19 18 18 18 19 19 19 18 18 18 18 17 17 16 15 15 15 15 15 16 16 16 15 16 17 17 17 16 14 13 13 13 13 13 13 13 14 14 15 15
22 21 20 19 20 21 22 22 22 22 22 22 22 22 22 22 22 22 22 21 21 21 20 18 18 18 19 20 20 19 19 19 19 19 20 20 19 19 18 17 17 16 16 14 14 14 14 13 13 14 14 13 13 14 15 16 15 13 12 12 13 13 13 13 13 13 14 15 15
23 22 22 21 22 22 22 22 22 23 23 23 23 23 22 22 22 22 22 22 22 21 21 20 20 19 18 18 19 19 20 19 19 19 19 19 18 18 17 16 15 15 14 14 17 18 19 17 14 12 11 10 11 12 14 15 14 13 12 12 13 13 13 14 15 15 15 15 15
23 23 23 23 23 23 23 23 23 24 24 24 24 23 23 22 22 22 22 23 22 22 21 20 20 19 18 18 19 19 19 18 18 18 17 17 17 17 17 15 14 13 13 15 18 20 21 22 20 16 12 10 11 12 12 12 12 12 13 13 13 14 14 14 15 15 15 15 15
23 23 23 23 23 24 24 24 23 24 24 24 24 24 24 23 22 22 23 23 23 22 21 20 19 19 18 17 19 19 19 18 17 17 17 17 17 17 17 15 14 13 13 16 19 21 22 22 22 21 17 13 12 12 12 11 12 12 13 13 14 14 15 15 16 16 15 15 15
23 23 24 24 24 24 24 23 23 23 24 24 24 24 24 24 24 23 23 23 22 21 19 18 17 16 14 14 16 18 19 18 17 16 16 17 17 17 17 15 13 13 15 18 20 21 22 22 22 22 21 17 14 13 13 12 12 12 12 13 14 15 16 16 15 15 15 15 15
24 24 24 25 24 24 23 23 23 23 23 23 23 23 24 24 23 23 23 23 22 20 18 15 14 13 13 14 15 17 18 18 17 16 15 16 17 17 17 15 14 15 17 20 21 21 21 21 21 22 21 20 15 11 10 10 10 11 11 12 13 14 14 14 14 14 15 15 15
24 24 24 24 24 24 23 23 23 23 22 21 21 22 22 22 23 23 23 22 21 20 17 15 14 14 15 16 16 17 17 17 16 15 15 15 16 17 17 17 16 16 17 19 20 19 19 20 21 21 22 21 17 13 11 10 11 11 11 12 13 14 15 16 16 17 16 15 15
23 23 23 24 24 24 24 23 23 23 23 22 22 22 22 21 22 22 21 21 20 19 18 17 18 18 19 18 17 17 17 18 17 16 15 14 15 16 18 19 18 17 17 18 19 19 19 20 21 22 22 22 18 14 12 12 12 12 12 12 14 15 16 16 16 17 17 17 16
23 23 24 24 24 24 24 24 23 23 23 23 23 23 22 21 21 20 20 19 18 18 18 18 19 19 19 19 18 18 18 18 18 17 16 14 14 15 17 18 19 18 17 18 19 20 20 21 21 22 22 22 19 16 14 14 13 13 13 14 16 17 17 15 15 17 18 19 18
23 24 24 24 24 24 24 24 23 23 23 23 23 23 22 22 21 20 19 18 17 17 18 18 18 18 18 18 17 17 18 18 18 18 18 15 13 13 15 17 17 17 17 18 19 19 19 20 20 21 21 21 18 16 14 14 13 12 12 14 15 16 17 17 17 17 18 19 18
23 24 24 24 24 24 24 24 24 23 23 23 23 23 22 21 21 20 19 17 16 16 16 16 17 17 17 17 17 17 17 16 17 17 17 16 14 14 14 14 13 14 16 18 18 18 18 18 19 20 20 20 16 14 14 14 13 13 13 14 15 14 14 15 16 18 19 19 18
24 24 24 24 24 24 24 24 24 24 23 23 23 22 22 21 20 19 18 17 17 16 16 16 16 16 16 16 16 17 17 17 17 17 18 17 16 16 16 15 14 15 17 19 19 18 18 19 19 19 19 18 14 13 13 14 14 14 15 15 15 15 15 15 15 16 17 18 18
24 25 25 25 25 25 25 24 24 24 23 23 22 22 22 21 19 18 17 17 17 17 16 16 16 16 17 17 17 17 17 17 17 17 17 17 17 17 17 17 16 17 19 20 20 20 19 20 20 20 19 16 13 11 12 12 12 13 15 15 15 15 16 16 15 15 15 16 17
25 25 25 26 26 25 25 25 24 24 23 23 22 22 21 20 19 18 17 16 16 16 16 16 16 16 17 17 16 16 17 17 17 17 17 17 17 17 17 17 17 18 19 20 20 20 20 20 21 20 19 15 12 11 11 10 10 12 13 14 15 15 16 15 14 14 15 16 17
25 25 25 26 25 25 25 24 24 23 23 23 22 21 20 19 17 17 16 15 15 15 15 16 16 16 17 17 17 17 17 17 17 17 17 17 17 17 17 18 17 17 17 18 20 20 20 20 21 20 18 14 13 11 10 9 10 11 12 12 13 14 14 13 12 12 13 16 17
26 25 25 25 25 25 25 24 24 23 23 22 21 21 20 18 16 15 15 15 14 14 15 15 16 16 17 17 16 16 16 17 17 16 16 16 16 17 18 18 17 16 16 18 19 19 20 20 21 21 19 16 13 11 9 8 9 11 12 12 12 12 13 12 11 11 12 15 17
25 25 25 25 25 24 24 24 24 23 22 21 21 20 19 18 17 16 15 14 14 14 14 15 16 17 17 16 16 16 16 16 16 16 16 16 16 17 18 17 17 17 17 17 18 19 20 20 21 21 20 15 12 9 8 8 9 11 11 11 10 10 10 11 11 11 11 13 15
24 24 25 25 24 24 24 24 24 23 21 20 20 19 18 17 17 16 15 14 14 14 14 14 16 17 17 16 15 15 15 16 15 15 15 15 15 16 16 16 16 16 16 17 18 19 20 20 21 21 19 15 12 9 8 7 9 11 12 11 10 9 9 10 10 10 10 11 12
Wind_Direction
295 293 291 290 288 287 285 283 282 281 281 281 281 281 282 281 281 281 280 279 278 277 277 276 276 276 276 275 275 275 275 275 274 274 273 272 273 275 277 279 279 280 280 280 281 280 280 279 278 276 274 272 270 269 268 267 267 267 267 267 267 266 265 264 262 258 252 245 240
295 293 292 290 288 286 284 283 281 280 279 280 281 282 282 282 282 281 280 279 278 278 278 277 277 276 276 276 276 276 277 277 276 275 274 273 273 274 275 275 276 277 278 279 280 280 280 280 279 278 275 273 271 269 267 265 264 264 264 264 265 265 264 262 261 260 258 253 245
295 294 292 290 288 287 286 284 283 282 282 282 282 283 283 283 282 282 281 279 279 278 278 277 277 276 276 276 276 276 276 277 276 275 274 273 273 273 273 274 275 275 276 277 278 278 279 280 279 277 275 273 271 270 268 266 264 263 263 262 261 260 259 259 259 259 258 254 246
295 294 292 290 289 288 287 287 286 286 285 284 284 283 282 282 281 280 279 279 278 276 275 274 275 275 275 275 275 275 275 275 275 274 273 272 272 272 273 274 275 275 275 276 277 278 279 280 278 276 273 272 271 269 268 267 266 265 264 262 260 258 256 256 257 257 256 254 248
295 294 292 291 291 290 289 287 287 287 286 285 284 282 281 279 278 277 276 275 273 272 272 273 274 275 275 275 274 274 274 274 274 273 272 271 271 271 271 272 273 275 276 276 277 277 278 279 277 274 272 271 270 268 268 267 267 266 265 263 261 258 256 254 253 253 254 254 250
296 294 293 291 291 290 288 287 286 286 285 284 282 281 280 278 278 277 277 276 276 276 276 277 277 276 275 274 274 273 273 273 272 271 270 270 269 269 269 270 272 273 274 275 275 275 275 276 275 273 271 270 268 267 266 267 266 265 263 262 260 258 255 252 250 249 249 249 248
296 295 294 292 291 290 288 287 287 286 284 282 281 280 280 279 279 280 280 280 280 279 279 278 277 276 275 274 273 273 273 272 272 272 271 270 269 268 268 269 271 272 273 275 275 275 275 274 273 271 270 269 267 265 264 264 264 263 262 261 260 259 257 254 250 248 246 246 246
295 294 293 292 291 290 289 288 287 285 283 281 280 280 281 281 281 281 281 280 279 278 278 277 277 276 276 275 274 273 272 272 272 271 271 271 271 270 270 271 272 273 274 275 276 275 275 274 272 271 271 269 267 266 265 265 265 265 264 263 263 262 260 258 253 249 247 247 246
294 293 293 292 291 290 289 288 286 285 283 282 281 281 281 281 281 281 280 279 278 278 277 276 276 276 275 274 272 271 270 269 269 269 269 270 271 271 272 272 273 274 275 276 276 275 274 273 271 270 270 270 269 269 268 268 267 267 266 265 264 262 260 259 256 252 250 248 248
295 294 293 292 290 290 289 288 286 284 283 282 281 281 281 281 280 280 279 279 278 278 276 275 275 275 274 273 272 271 269 268 268 268 268 268 268 269 269 270 270 272 273 275 275 275 275 273 271 270 270 270 270 269 269 268 268 267 267 266 264 263 262 260 258 255 253 250 249
295 294 293 292 291 291 290 288 286 284 283 282 281 281 280 280 279 279 279 279 278 276 276 275 275 275 274 273 271 270 269 268 267 267 267 267 266 266 266 267 268 270 272 273 274 274 274 273 271 271 270 269 269 269 268 267 267 266 265 264 264 264 264 262 260 258 255 252 251
296 295 294 293 292 291 290 288 286 284 283 282 281 280 280 279 279 279 278 278 276 276 275 275 274 274 273 272 271 270 268 268 267 267 267 266 266 265 265 266 267 269 270 271 271 271 271 270 269 269 269 268 268 267 267 267 266 266 265 264 264 264 264 263 261 259 257 255 253
298 297 296 295 294 293 291 289 287 285 283 282 282 281 280 279 279 278 278 277 276 276 275 274 274 273 273 272 270 269 268 268 267 267 267 266 266 266 265 265 265 266 268 269 268 268 267 267 267 268 268 267 267 266 266 267 267 266 266 266 266 266 265 265 263 261 259 257 255
299 298 297 297 296 295 293 291 289 287 285 284 283 282 281 280 279 279 278 277 276 276 276 275 274 272 271 271 270 270 269 268 268 267 267 267 267 266 266 266 266 266 266 267 267 266 266 266 266 266 267 267 266 266 267 267 267 267 267 267 266 266 266 265 265 263 261 258 256
301 300 300 299 298 297 295 294 292 289 288 287 286 285 284 282 281 280 279 278 278 277 277 276 275 274 273 272 272 271 271 270 270 269 268 268 267 267 267 267 267 267 267 267 267 266 266 265 266 266 266 266 266 266 266 267 266 266 266 266 266 266 265 265 265 263 261 259 256
302 302 302 301 300 299 297 296 294 292 291 290 290 289 287 286 284 283 281 280 279 278 277 276 276 276 275 274 273 272 271 271 270 270 269 269 268 268 268 268 268 268 268 268 267 266 265 264 265 265 265 266 266 266 267 267 267 266 266 265 265 265 265 265 264 263 261 259 257
303 303 302 301 300 299 298 297 296 295 294 293 293 291 290 288 287 285 283 282 280 278 277 276 276 276 275 274 274 273 272 271 270 269 269 268 268 267 268 268 269 269 269 269 268 265 263 262 263 264 265 266 267 267 267 267 267 266 264 263 263 263 264 264 263 261 259 258 256
303 303 302 301 301 300 299 298 297 296 295 294 294 292 291 290 288 287 285 284 282 281 279 278 277 277 276 276 275 274 272 271 269 268 268 267 267 266 266 266 267 268 269 269 267 264 261 259 261 262 264 265 266 267 267 267 266 264 263 262 261 262 262 262 260 259 257 255 254
303 302 302 301 300 299 299 298 297 295 295 294 293 292 291 291 290 289 287 286 284 283 282 281 280 279 278 277 276 274 272 271 270 269 268 267 267 266 265 265 265 266 266 267 265 262 259 257 259 261 263 264 265 266 266 266 264 263 262 260 260 259 259 258 256 255 253 252 252
302 302 301 301 300 299 298 297 296 295 294 293 292 292 291 291 290 289 288 287 286 285 284 283 282 281 279 278 277 275 273 272 271 270 269 269 268 267 266 265 265 264 264 263 261 259 257 257 258 260 262 263 264 265 265 264 263 262 262 264 264 264 264 264 261 257 253 250 249
302 302 301 300 299 298 297 296 295 294 293 292 291 291 290 289 288 288 287 287 287 285 284 283 281 280 279 277 276 274 273 271 270 270 270 270 270 269 268 267 266 265 263 260 258 256 255 256 258 259 261 262 262 262 261 261 260 261 262 265 269 272 274 276 273 270 265 258 253
302 301 300 300 299 298 297 295 294 293 293 292 291 290 289 289 287 287 286 285 284 283 282 281 280 278 277 276 275 274 272 270 269 269 270 270 270 269 269 268 268 266 263 259 255 253 253 254 256 258 259 261 260 259 258 256 255 255 257 261 267 271 273 276 278 278 276 271 264
302 301 300 299 298 297 296 295 294 293 292 291 291 290 289 288 287 286 285 284 282 281 280 279 278 277 276 275 275 274 273 271 270 269 269 269 269 269 268 268 267 265 261 257 253 251 252 254 255 257 258 259 259 260 258 255 251 251 253 260 265 269 271 272 274 277 278 276 271
302 301 300 299 299 298 297 296 296 295 293 292 291 291 289 288 287 286 285 284 282 281 279 278 277 276 275 275 274 273 272 271 269 268 268 267 267 267 266 266 264 261 258 254 251 250 250 252 254 255 256 257 258 259 258 255 252 252 255 261 266 269 271 271 272 273 275 277 273
303 302 301 300 300 300 299 299 298 297 296 295 294 292 291 289 288 287 286 284 283 281 279 278 277 276 275 275 274 273 272 270 268 267 266 265 264 264 263 263 261 259 256 253 252 252 252 253 252 252 252 253 254 254 254 255 256 258 261 265 268 269 270 270 270 270 271 273 274
304 304 303 303 303 303 302 302 301 300 299 298 296 294 293 291 289 288 286 285 283 282 281 279 278 277 275 275 274 273 272 271 269 267 265 263 262 260 260 259 258 257 256 255 255 254 254 254 253 250 247 244 246 250 254 258 263 267 269 271 271 270 269 268 267 267 267 268 271
306 306 306 306 305 305 304 303 303 302 301 300 299 297 295 293 291 289 287 285 284 283 282 280 279 278 276 275 274 273 272 271 270 268 266 264 261 259 257 256 256 256 256 256 256 256 255 254 253 250 246 240 241 246 254 263 269 272 274 273 272 272 271 270 269 267 266 265 266
308 308 307 307 306 305 304 303 302 302 301 301 300 299 297 295 292 290 287 285 284 283 282 280 279 277 276 274 273 272 271 269 268 267 266 265 262 258 255 253 253 255 257 257 257 256 255 254 254 253 251 248 249 253 259 267 271 273 272 271 271 270 270 270 269 268 265 263 261
309 309 308 307 305 304 303 302 301 301 301 301 300 299 298 297 294 291 288 286 284 282 281 279 278 276 273 272 272 272 271 270 268 265 264 264 263 259 255 250 248 249 252 254 256 258 259 260 261 260 259 259 260 264 268 272 272 271 269 268 268 268 268 268 267 265 263 261 259
310 309 307 306 304 303 302 301 300 300 300 300 299 299 298 296 294 292 289 286 284 282 280 278 277 275 273 272 273 273 272 271 268 264 261 259 260 259 257 252 247 245 246 249 253 257 261 265 266 266 266 265 266 268 270 270 270 270 269 269 268 267 267 267 266 265 262 259 256
309 308 307 305 304 302 301 301 300 300 299 298 298 298 297 296 294 291 288 286 283 281 279 278 276 274 273 272 271 271 271 271 269 265 260 256 257 258 259 257 251 246 244 244 249 253 256 259 261 262 263 264 264 265 266 267 267 268 269 269 268 267 267 266 265 264 262 259 256
309 308 307 306 304 303 302 301 300 299 299 298 297 296 296 294 293 291 288 286 283 281 279 277 275 273 272 271 270 270 270 269 269 266 263 259 258 260 261 261 256 251 245 242 245 248 251 253 254 256 259 261 263 264 265 267 268 267 267 267 267 267 266 265 265 264 262 260 256
310 309 308 307 305 304 303 301 300 299 298 298 297 296 295 294 293 292 290 287 284 282 279 277 275 273 272 271 270 270 270 269 268 266 264 260 258 259 261 263 260 255 250 246 247 248 251 253 255 258 260 263 265 266 267 267 267 267 265 264 264 264 266 268 268 267 265 262 258
310 309 308 307 306 304 303 301 300 299 298 297 296 295 295 295 294 294 292 289 286 282 279 276 274 273 271 270 270 269 269 268 267 265 263 259 255 253 254 257 258 258 256 253 251 251 252 255 258 261 263 265 267 267 267 266 265 263 262 262 262 262 264 266 269 270 270 268 264
310 309 309 307 306 304 303 302 300 299 298 297 296 295 295 295 295 294 293 290 287 283 279 277 275 273 271 269 268 267 267 266 266 265 264 261 257 253 251 251 254 256 256 256 255 254 254 256 258 260 262 264 264 264 264 264 264 264 263 263 263 262 260 260 262 266 269 270 267
310 310 309 307 306 305 303 303 301 300 299 297 297 296 296 296 295 294 293 290 287 283 280 277 276 274 272 270 268 266 265 265 265 264 263 262 261 258 256 254 254 255 255 257 257 257 257 257 259 260 261 263 262 262 262 263 264 264 264 264 263 261 259 257 257 260 265 268 266
311 310 309 308 307 306 305 304 303 302 301 299 298 298 297 297 296 294 292 290 286 282 279 277 276 274 272 270 268 266 265 266 266 266 265 264 263 262 261 259 257 257 257 258 259 259 259 260 260 261 262 263 262 262 263 262 262 262 263 263 262 260 258 257 256 258 260 262 262
311 310 309 308 307 307 306 306 305 304 302 301 300 299 298 297 295 293 291 288 284 281 278 277 275 273 272 270 268 267 266 266 267 267 266 265 264 263 262 261 260 259 258 258 259 260 261 261 262 262 261 262 262 261 261 260 261 261 262 261 260 259 258 257 256 255 256 256 257
311 310 309 308 308 307 307 306 306 305 304 303 301 300 298 297 294 292 289 287 283 280 278 276 275 273 272 271 269 267 266 265 265 265 265 265 264 264 263 263 261 260 258 257 258 258 259 260 260 260 260 260 259 259 258 257 258 259 260 260 260 259 258 257 255 254 254 254 255
310 309 309 308 308 307 307 307 306 306 305 303 301 300 298 296 294 292 290 287 284 281 278 276 274 273 272 271 270 268 266 264 264 263 264 264 264 264 264 264 263 262 260 258 256 256 256 257 257 258 258 258 256 254 253 252 253 255 255 256 258 259 259 257 256 255 256 258 259
310 309 308 308 308 308 308 307 307 306 305 303 301 299 297 295 293 292 290 287 284 281 278 276 274 273 272 272 271 270 268 266 264 264 264 265 266 266 267 267 266 265 262 259 257 256 256 256 257 258 258 258 255 251 248 247 251 253 255 256 257 259 260 261 260 260 261 262 262